Theta_e
314 314 315 315 315 315 315 318 319 321 322 323 323 324 322 320 320 312 304 306 310 322 319 305 306 307 308 305 305 301 293 290 293 294 297 303 304 306 309 308 312 316 316 319 326
313 313 314 314 314 314 314 315 318 320 320 323 323 322 320 319 311 304 313 319 321 322 301 300 300 306 300 302 304 298 291 293 298 297 297 303 304 307 308 310 309 313 320 325 324
312 313 313 313 313 313 314 313 316 318 320 321 323 323 321 315 301 300 319 321 323 318 305 307 307 305 297 299 300 296 291 294 298 299 301 301 303 306 306 305 311 312 318 323 322
310 311 311 312 312 312 313 313 314 316 318 319 322 322 321 310 287 306 322 321 324 314 306 304 304 300 296 295 299 294 298 296 298 302 301 301 302 304 307 308 312 317 323 323 322
308 309 310 311 312 312 312 312 313 315 316 318 318 321 312 301 300 308 321 321 316 311 301 302 301 300 296 296 295 294 297 299 298 300 298 301 298 303 304 306 313 322 323 323 323
307 307 308 309 311 312 311 312 313 314 315 317 317 320 306 294 308 311 312 313 313 307 301 301 302 302 298 296 295 296 297 299 299 298 299 296 296 298 302 311 317 321 321 322 323
307 307 306 309 311 311 311 311 312 314 314 315 317 315 304 299 308 309 311 309 308 304 301 303 302 302 300 296 299 298 294 295 297 299 297 298 294 295 300 311 315 317 319 320 323
308 307 307 307 309 311 311 311 311 312 314 314 315 311 300 312 311 308 307 305 309 310 308 308 311 304 301 300 298 295 293 289 294 298 298 296 287 294 298 305 309 313 313 318 320
309 308 307 307 307 310 311 311 311 311 313 313 308 306 300 312 306 310 307 303 305 306 308 309 309 301 301 293 290 290 285 286 290 297 297 294 290 295 296 297 300 304 309 313 316
309 309 307 307 306 308 310 310 309 310 310 310 307 299 302 300 307 308 307 306 302 303 300 304 300 294 294 289 282 283 284 286 288 291 294 292 292 295 295 294 295 295 297 303 311
309 309 308 307 307 307 305 300 295 294 299 296 296 297 300 305 308 304 305 302 303 299 289 294 289 287 290 291 292 289 287 285 286 290 292 291 291 296 297 294 294 294 293 295 298
309 309 309 307 306 306 301 293 297 299 291 300 300 300 304 305 299 302 305 297 296 290 291 289 285 289 295 295 293 291 287 285 289 293 291 288 288 292 293 294 296 296 295 295 295
308 308 308 307 306 300 296 297 304 302 289 293 299 298 297 303 298 299 301 298 294 291 289 285 286 293 292 292 291 289 286 285 287 290 290 287 284 287 291 291 293 295 297 296 295
308 308 308 307 296 296 294 301 305 302 283 284 292 297 300 301 296 304 304 299 295 290 290 288 290 290 288 287 291 285 290 289 288 287 281 285 276 282 285 288 289 291 292 294 295
308 308 307 304 294 290 296 303 302 297 266 285 292 303 301 295 295 297 303 299 291 290 290 287 287 287 285 287 291 287 291 290 288 285 284 281 278 280 283 284 287 289 292 293 294
307 307 306 298 295 296 300 303 298 279 270 283 293 292 292 295 294 297 298 301 299 293 292 290 291 289 289 290 291 291 288 287 286 284 276 281 280 278 282 286 287 289 289 290 291
306 307 303 299 289 298 299 296 276 272 282 281 287 290 289 288 291 293 292 290 288 284 284 287 286 289 289 286 290 288 284 273 272 271 274 279 279 283 285 287 286 288 288 288 289
307 306 301 299 297 297 293 284 270 275 277 286 286 286 286 289 289 291 290 287 292 289 286 282 280 286 289 287 285 286 285 275 269 270 274 279 276 281 286 289 289 289 290 289 289
305 294 293 295 299 296 286 274 269 275 284 285 286 283 284 288 289 288 287 287 290 292 284 283 283 289 289 290 290 286 282 286 278 268 270 275 278 283 286 287 288 288 290 290 289
291 289 289 298 297 295 283 274 271 284 286 286 279 284 280 284 284 285 285 289 290 294 292 287 281 286 289 291 291 287 289 281 278 266 266 272 274 277 281 284 285 287 289 289 289
289 281 289 298 295 283 270 268 274 286 287 284 282 282 282 282 285 284 282 287 290 290 293 289 285 281 287 285 284 285 283 283 283 277 271 269 273 279 282 283 285 287 289 289 290
286 274 291 292 274 270 268 270 285 284 286 285 285 285 283 284 281 285 284 286 292 292 287 290 286 279 282 287 289 289 286 286 280 277 277 276 274 282 283 283 284 286 288 288 289
283 283 293 292 268 263 270 271 279 281 282 284 282 285 287 285 279 285 286 290 292 291 288 288 284 278 279 284 286 285 286 288 286 281 277 272 275 283 283 282 283 283 285 288 289
281 273 278 289 284 278 273 269 272 285 284 287 283 285 282 282 284 277 284 288 291 291 292 294 286 282 278 281 283 282 285 287 286 280 280 279 281 280 282 282 283 283 283 284 287
284 273 274 268 278 276 272 271 271 273 282 284 283 281 280 274 280 280 279 285 289 290 287 290 281 283 284 285 285 284 284 285 284 285 279 281 279 282 283 282 283 286 286 285 285
282 282 284 280 274 275 279 269 274 277 278 276 280 282 282 277 280 277 282 281 279 288 286 288 282 281 276 283 284 283 285 286 286 286 285 283 282 287 286 286 287 289 288 287 287
290 288 285 279 279 276 276 274 276 280 281 283 282 281 280 283 285 285 286 286 285 284 285 284 281 276 276 281 283 279 283 284 286 287 287 282 287 289 289 288 288 288 288 289 289
Wind_Speed
16 17 17 16 17 16 12 18 17 16 15 16 13 10 8 5 6 4 6 9 6 3 0 2 2 3 3 2 2 3 3 4 6 6 5 4 5 4 2 7 2 1 5 2 17
17 17 16 16 17 15 11 15 17 17 13 17 13 10 8 2 1 8 11 8 6 2 1 3 1 1 3 2 1 4 4 8 6 5 4 4 4 8 6 4 1 1 3 12 18
15 16 16 14 15 16 15 11 16 16 15 16 13 10 8 4 2 8 8 11 10 5 2 2 3 2 3 2 3 5 6 4 4 3 2 3 4 2 7 4 7 11 9 14 16
15 15 15 15 16 16 16 13 13 16 13 12 13 11 8 3 7 1 3 4 8 5 4 4 4 6 5 7 5 4 6 3 3 2 2 4 3 4 7 7 7 11 18 16 16
15 16 17 17 16 16 13 17 15 11 12 11 13 13 5 4 9 4 4 4 6 6 7 6 5 6 7 6 3 4 4 5 4 2 3 1 2 4 6 2 5 13 13 17 18
14 16 16 19 18 15 13 15 16 11 9 10 12 11 5 7 4 8 7 5 5 4 5 5 6 4 4 4 6 5 5 2 3 2 3 2 2 1 5 6 7 15 14 13 17
12 14 17 18 19 16 13 13 15 13 8 8 11 8 9 14 1 5 7 5 4 4 4 4 3 3 3 2 3 1 2 1 4 4 3 3 6 7 2 6 9 9 11 10 12
12 12 14 16 18 17 13 12 13 16 11 8 9 5 5 2 1 2 2 3 4 2 1 1 3 3 2 2 4 4 2 4 3 8 3 6 8 8 5 7 9 9 7 9 11
12 10 12 14 16 17 14 13 15 16 15 6 5 6 3 3 6 5 4 5 4 3 0 1 3 2 4 5 3 2 4 4 4 8 4 6 6 5 3 7 8 8 8 8 8
13 12 12 13 15 16 14 13 13 14 8 3 4 5 3 3 5 6 6 5 3 5 3 3 3 3 4 4 12 5 3 3 6 4 3 4 10 7 2 3 9 8 7 8 10
10 11 11 12 14 16 8 5 4 3 2 4 2 3 1 3 4 5 6 7 4 4 5 2 4 8 8 6 4 5 3 5 3 3 3 7 7 14 6 4 7 7 8 9 10
11 12 11 11 12 15 2 2 3 6 10 9 8 7 5 4 3 6 10 8 5 5 6 4 5 5 5 6 3 3 2 4 2 0 4 3 8 12 7 7 8 11 10 10 7
11 10 10 10 12 4 2 5 3 10 6 5 8 6 7 5 3 11 10 5 4 7 8 7 5 10 7 5 9 7 5 3 2 2 2 4 7 8 7 6 7 11 11 8 11
10 9 10 8 4 4 3 10 4 6 4 4 7 8 7 4 4 5 9 5 4 10 7 3 3 7 4 7 7 9 7 6 5 1 2 2 7 6 6 9 7 11 11 14 14
8 8 7 2 2 2 5 3 4 2 4 3 4 1 8 9 5 5 5 2 8 7 7 6 8 7 5 6 8 6 7 9 6 3 4 2 2 9 3 6 9 11 15 14 12
9 7 1 3 2 3 5 3 1 3 6 4 3 7 9 10 3 4 7 2 3 5 2 4 1 6 8 5 10 8 7 6 4 3 2 8 6 6 6 7 6 6 6 9 9
9 6 4 3 1 3 4 3 4 2 4 5 2 5 11 13 8 7 10 8 7 7 7 2 3 2 4 6 2 3 8 2 3 1 7 3 6 11 7 10 5 7 9 7 3
10 1 1 1 2 2 2 3 2 3 5 3 1 9 10 7 12 8 11 11 11 3 6 8 5 9 7 8 8 11 8 7 8 5 4 2 9 8 8 10 7 8 7 4 3
10 2 2 3 1 2 4 2 7 2 6 9 3 6 10 10 5 7 9 15 13 12 7 9 11 2 5 4 12 6 9 7 7 3 3 6 8 9 8 9 8 8 5 6 5
3 3 2 5 1 1 2 5 5 4 3 3 4 4 3 12 8 13 11 6 14 14 1 0 3 3 4 4 4 8 9 4 1 4 5 4 5 6 3 7 3 5 7 5 4
4 4 4 5 2 5 3 7 5 2 2 4 4 3 5 6 4 7 5 6 9 5 12 2 2 3 7 10 16 6 8 3 6 5 5 1 7 8 7 5 5 8 7 7 5
2 3 3 4 4 2 1 5 5 4 1 5 4 4 4 1 3 4 5 1 7 12 3 7 2 5 7 2 1 14 6 13 6 6 3 3 8 2 7 9 7 8 6 4 4
2 1 3 3 1 3 6 6 3 3 2 3 3 3 2 3 1 2 4 6 6 1 13 9 5 3 4 4 5 8 8 14 5 3 7 7 7 2 4 3 3 3 3 2 3
3 2 4 0 1 4 2 6 5 3 5 5 5 2 3 2 1 3 2 2 2 2 9 11 6 5 6 1 7 7 16 12 20 11 17 12 13 3 5 3 4 4 4 3 2
2 4 5 2 4 2 3 3 3 5 3 3 3 3 2 2 2 3 2 1 5 4 3 2 3 4 4 6 2 4 14 19 14 21 11 14 7 7 8 5 4 3 2 1 1
5 3 1 1 0 3 4 5 5 4 3 5 6 8 5 4 5 3 1 2 6 1 4 3 1 2 4 6 9 8 17 18 18 13 12 5 10 9 3 3 6 6 4 6 6
1 1 3 3 3 3 5 7 7 3 7 7 7 2 7 8 8 8 6 4 4 5 5 4 4 3 1 4 1 8 13 15 18 15 20 15 26 5 5 7 8 6 5 6 7
Wind_Direction
304 303 298 288 291 298 321 313 303 299 301 239 231 224 231 246 295 253 236 226 198 196 194 289 304 291 263 287 159 127 83 214 213 164 240 137 157 166 117 123 62 93 149 180 133
313 306 298 291 283 288 312 316 305 292 305 250 223 213 207 187 241 244 242 233 220 205 229 153 182 351 279 276 196 139 162 221 203 201 209 195 167 165 140 134 99 87 19 126 138
332 313 309 298 286 281 295 315 316 304 288 299 215 205 177 120 23 246 198 228 191 186 155 110 113 111 221 209 215 178 203 224 248 231 170 186 183 199 131 221 199 183 156 148 149
343 344 321 308 289 288 294 295 297 293 311 280 223 191 151 110 211 224 176 145 156 169 150 153 150 150 198 200 211 184 237 193 251 245 215 187 151 213 186 215 183 170 164 153 164
343 342 337 328 307 291 288 298 299 309 312 298 312 183 142 154 241 193 175 149 132 148 174 179 160 151 177 202 169 220 210 192 243 227 267 143 176 196 233 340 121 133 160 171 179
339 339 336 331 321 301 275 283 297 289 280 299 281 223 167 211 207 153 176 163 157 165 168 163 192 174 188 214 181 225 208 178 171 231 284 235 255 350 240 113 120 153 175 183 185
322 331 336 336 335 315 282 290 304 292 285 307 271 273 193 212 346 168 173 174 149 161 153 188 165 147 146 186 209 167 163 245 217 186 241 138 281 236 233 142 158 182 184 190 201
306 316 330 336 338 328 301 296 303 311 288 291 336 331 232 311 133 169 203 138 119 134 149 165 189 141 143 242 29 133 105 184 242 151 230 129 258 254 205 156 187 197 200 200 209
306 296 315 334 337 338 312 297 293 300 297 317 2 231 183 6 232 188 195 142 120 97 77 262 141 178 87 141 65 318 212 202 308 203 138 173 254 266 157 198 221 207 209 215 223
297 297 297 321 336 337 329 297 287 290 266 176 251 252 211 199 188 167 179 149 133 116 73 87 83 143 119 222 200 193 188 205 203 215 180 200 248 271 286 181 234 242 242 230 230
327 304 290 306 330 336 349 343 352 305 297 240 246 288 155 231 167 173 146 122 109 90 145 148 135 199 188 151 94 148 178 176 241 244 163 245 247 252 246 265 256 241 243 245 242
327 316 310 299 324 332 54 325 323 46 297 235 255 281 325 337 146 160 141 136 155 152 129 76 227 202 179 196 161 61 102 207 259 174 169 290 261 260 235 230 222 242 238 235 248
331 331 316 296 329 27 317 276 58 57 289 277 194 222 254 315 239 180 162 130 148 143 174 158 204 173 183 181 193 197 176 264 153 122 189 353 288 253 254 222 219 242 243 246 221
329 328 315 301 16 310 337 321 81 91 272 238 201 214 162 283 249 164 170 139 167 177 143 186 175 161 156 201 172 209 176 226 320 45 237 78 278 278 261 253 234 242 233 239 237
336 336 324 89 238 13 323 38 55 51 334 258 160 203 155 174 170 208 162 146 163 153 131 212 172 168 167 200 158 208 154 189 170 165 64 239 323 267 298 266 260 246 232 238 239
349 345 359 56 28 281 330 101 7 38 251 333 128 190 167 189 185 102 173 76 93 142 54 170 155 172 188 180 165 146 93 56 59 103 252 185 182 225 209 224 250 244 239 248 246
322 325 155 122 249 332 346 2 22 211 352 290 257 205 200 197 170 174 169 175 174 151 176 139 193 224 144 127 124 138 126 29 9 357 234 331 198 258 263 260 241 296 286 295 301
304 137 72 199 21 16 36 47 263 266 265 298 279 316 212 174 211 176 172 187 212 213 154 167 207 184 189 180 168 180 176 151 180 203 213 147 233 248 236 283 261 260 278 304 334
112 30 45 332 356 89 88 177 217 236 321 324 301 257 190 205 166 157 212 207 201 204 189 188 222 168 191 147 153 179 214 146 107 18 69 216 289 289 282 267 258 260 210 222 264
79 64 353 313 124 150 88 244 222 233 285 284 271 270 292 173 177 191 168 176 219 191 172 149 203 208 148 128 53 173 148 161 55 150 231 257 269 244 300 265 222 237 231 223 243
50 50 275 329 34 56 172 234 280 270 251 267 292 334 15 1 195 193 180 162 172 198 156 192 219 303 139 209 179 154 188 162 127 164 173 205 258 219 249 260 229 231 220 211 206
99 37 301 42 55 309 212 204 315 286 327 266 290 283 201 27 278 278 194 257 205 171 204 173 150 175 198 76 355 215 202 195 184 207 221 146 262 254 269 274 225 229 201 184 173
94 209 335 82 109 305 311 303 249 302 283 288 279 283 290 162 265 301 143 0 53 336 178 166 174 169 138 3 356 211 213 194 228 93 198 143 258 334 335 20 76 161 156 169 170
94 16 329 266 88 160 268 288 294 248 265 252 284 291 41 201 212 287 64 31 36 63 329 190 179 196 195 119 122 193 213 220 204 220 232 224 231 251 269 260 35 56 83 62 61
61 240 182 221 247 205 109 184 298 325 261 313 293 253 161 263 299 286 313 293 216 184 3 264 216 198 233 163 156 211 218 220 219 225 200 241 205 223 225 218 239 330 12 217 198
141 169 145 210 137 128 223 238 218 266 199 277 241 275 265 228 195 219 152 209 225 32 142 45 341 123 258 191 184 213 220 211 215 235 244 262 281 223 160 196 267 266 282 278 285
155 110 130 194 193 169 220 221 227 194 248 228 249 294 299 264 245 248 241 281 264 176 196 162 145 55 10 81 227 222 218 209 217 213 221 228 240 101 252 231 237 241 194 247 257